PPR-pyyntö

Ennakkolupa on pakollinen lentoonlähtöjä ja laskuja varten. Pyydä ennakkolupa tästä lentopäivänä.

Laskukierrosvaraus

Tee ensin PPR-pyyntö, sitten vasta laskukierrosvaraus. Hinta 5 € / 15 min.

Aerodrome Info

Updated 13 NOV 2018 12:09 LT

  • Runway wet, water ponds on aprons and taxiways. Recommended rwy

Contact duty officer at +358 20 7545 129 for more information.

Remember to close your flight plan: ACC tel. +358 3 286 5172

Weather


Helsinki Malmi lentokenttä
AWS ILHF 131630Z AUTO 21003KT 9999 FEW005 BKN010 06/06 Q1013=



Helsinki-Malmin lentoasema

Tervetuloa Helsinki-Malmin lentokentälle

Malmin lentokenttäyhdistys ry toimii Suomen vilkkaimman yleisilmailukentän, Helsinki-Malmin operaattorina. Yhdistyksen toiminnassa ovat mukana kentällä toimivat yhteisöt sekä suuri joukko yleisilmailijoita.

Malmin lentokentän toiminta rahoitetaan jäsen- ja kausikorttimaksuin. Ole mukana jatkamassa Malmin lentotoimintaa ja liity jäseneksi!